Location: Kellogg
(38.0159°N, 90.0546°W)
Time: 18:08:51
(UTC+00:00)

S-56A Canister/Altair - Pass Details

Date: 13 September 2024
Orbit: 636 x 2487 km, 38.9° (Epoch: 04 October)

Event Time Altitude Azimuth Distance (km) Brightness Sun altitude
Rises 00:55:50 0° 238° (WSW) 3,243 11.5 -9.4°
Reaches altitude 10° 00:57:57 10° 235° (SW) 2,457 10.8 -9.8°
Maximum altitude 01:03:39 62° 155° (SSE) 1,193 8.3 -10.9°
Enters shadow 01:12:09 10° 77° (ENE) 3,608 10.4 -12.5°
Drops below altitude 10° 01:12:13 10° 77° (ENE) 3,633 - -12.5°
Sets 01:16:00 0° 75° (ENE) 4,926 - -13.2°
